Previsão horária em Kaalamo

Hoje, 22 Junho, Terça-feira

Tempo Temperatura Precipitação Vento Pressão Humidade
00:00 +19°C° 0 mm 2 m/s 752 mmHg 85%
01:00 +19°C° 0 mm 2 m/s 752 mmHg 86%
02:00 +19°C° 0 mm 2 m/s 752 mmHg 86%
03:00 +20°C° 0.2 mm 2 m/s 752 mmHg 85%
04:00 +20°C° 0.2 mm 2 m/s 752 mmHg 84%
05:00 +22°C° 0.2 mm 1 m/s 752 mmHg 82%
06:00 +23°C° 0.1 mm 2 m/s 752 mmHg 76%
07:00 +25°C° 0.1 mm 2 m/s 752 mmHg 70%
08:00 +26°C° 0.1 mm 3 m/s 752 mmHg 64%
09:00 +28°C° 0 mm 3 m/s 752 mmHg 59%
10:00 +29°C° 0 mm 3 m/s 752 mmHg 54%
11:00 +30°C° 0 mm 4 m/s 752 mmHg 49%
12:00 +30°C° 0 mm 4 m/s 752 mmHg 48%
13:00 +30°C° 0 mm 4 m/s 752 mmHg 47%
14:00 +30°C° 0 mm 4 m/s 752 mmHg 46%
15:00 +30°C° 0 mm 4 m/s 752 mmHg 45%
16:00 +30°C° 0 mm 4 m/s 751 mmHg 44%
17:00 +29°C° 0 mm 4 m/s 751 mmHg 44%
18:00 +28°C° 0 mm 4 m/s 751 mmHg 49%
19:00 +26°C° 0 mm 3 m/s 750 mmHg 55%
20:00 +24°C° 0 mm 3 m/s 750 mmHg 60%
21:00 +23°C° 0.1 mm 2 m/s 750 mmHg 66%
22:00 +22°C° 0.1 mm 1 m/s 750 mmHg 71%
23:00 +21°C° 0.1 mm 1 m/s 751 mmHg 76%

Amanhã, 23 Junho, Quarta-feira

Tempo Temperatura Precipitação Vento Pressão Humidade
00:00 +20°C° 0.5 mm 1 m/s 751 mmHg 81%
01:00 +20°C° 0.5 mm 1 m/s 751 mmHg 86%
02:00 +19°C° 0.5 mm 2 m/s 751 mmHg 91%
03:00 +19°C° 0.2 mm 2 m/s 751 mmHg 92%
04:00 +20°C° 0.2 mm 2 m/s 751 mmHg 93%
05:00 +20°C° 0.2 mm 2 m/s 751 mmHg 94%
06:00 +23°C° 0 mm 2 m/s 751 mmHg 85%
07:00 +24°C° 0 mm 2 m/s 751 mmHg 77%
08:00 +26°C° 0 mm 3 m/s 752 mmHg 69%
09:00 +27°C° 0.2 mm 3 m/s 752 mmHg 66%
10:00 +28°C° 0.2 mm 3 m/s 752 mmHg 64%
11:00 +28°C° 0.2 mm 3 m/s 752 mmHg 62%
12:00 +28°C° 0.8 mm 3 m/s 752 mmHg 64%
13:00 +28°C° 0.8 mm 3 m/s 752 mmHg 66%
14:00 +28°C° 0.8 mm 3 m/s 752 mmHg 68%
15:00 +28°C° 0.2 mm 2 m/s 752 mmHg 66%
16:00 +28°C° 0.2 mm 2 m/s 752 mmHg 63%
17:00 +28°C° 0.2 mm 2 m/s 752 mmHg 61%
18:00 +27°C° 0.2 mm 2 m/s 752 mmHg 68%
19:00 +25°C° 0.2 mm 2 m/s 752 mmHg 75%
20:00 +23°C° 0.2 mm 2 m/s 752 mmHg 83%
21:00 +21°C° 0.3 mm 2 m/s 752 mmHg 87%
22:00 +20°C° 0.3 mm 2 m/s 752 mmHg 92%
23:00 +19°C° 0.3 mm 1 m/s 752 mmHg 97%

Depois de amanhã, 24 Junho, Quinta-feira

Tempo Temperatura Precipitação Vento Pressão Humidade
00:00 +19°C° 0 mm 1 m/s 752 mmHg 97%
01:00 +19°C° 0 mm 1 m/s 753 mmHg 97%
02:00 +18°C° 0 mm 1 m/s 753 mmHg 97%
03:00 +19°C° 0 mm 1 m/s 753 mmHg 96%
04:00 +19°C° 0 mm 1 m/s 753 mmHg 95%
05:00 +20°C° 0 mm 1 m/s 753 mmHg 94%
06:00 +21°C° 0 mm 1 m/s 753 mmHg 87%
07:00 +22°C° 0 mm 1 m/s 753 mmHg 81%
08:00 +23°C° 0 mm 2 m/s 753 mmHg 74%
09:00 +24°C° 0 mm 1 m/s 753 mmHg 68%
10:00 +25°C° 0 mm 1 m/s 753 mmHg 62%
11:00 +27°C° 0 mm 1 m/s 753 mmHg 56%
12:00 +24°C° 1.2 mm 1 m/s 753 mmHg 68%
13:00 +21°C° 1.2 mm 2 m/s 753 mmHg 80%
14:00 +19°C° 1.2 mm 2 m/s 753 mmHg 91%
15:00 +20°C° 1.6 mm 1 m/s 753 mmHg 92%
16:00 +20°C° 1.6 mm 1 m/s 753 mmHg 93%
17:00 +20°C° 1.6 mm 1 m/s 753 mmHg 94%
18:00 +20°C° 0 mm 1 m/s 753 mmHg 93%
19:00 +20°C° 0 mm 1 m/s 753 mmHg 91%
20:00 +20°C° 0 mm 1 m/s 753 mmHg 90%
21:00 +19°C° 0 mm 1 m/s 753 mmHg 90%
22:00 +16°C° 0 mm 0 m/s 753 mmHg 90%
23:00 +15°C° 0 mm 0 m/s 753 mmHg 90%

25 Junho, Sexta-feira

Tempo Temperatura Precipitação Vento Pressão Humidade
00:00 +16°C° 0 mm 1 m/s 753 mmHg 91%
01:00 +15°C° 0 mm 1 m/s 753 mmHg 91%
02:00 +15°C° 0 mm 2 m/s 753 mmHg 91%
03:00 +15°C° 0 mm 2 m/s 753 mmHg 91%
04:00 +16°C° 0 mm 2 m/s 753 mmHg 91%
05:00 +16°C° 0 mm 2 m/s 753 mmHg 91%
06:00 +18°C° 0 mm 2 m/s 753 mmHg 87%
07:00 +19°C° 0 mm 2 m/s 753 mmHg 83%
08:00 +20°C° 0 mm 2 m/s 753 mmHg 80%
09:00 +21°C° 0.1 mm 1 m/s 753 mmHg 79%
10:00 +21°C° 0.1 mm 1 m/s 753 mmHg 79%
11:00 +21°C° 0.1 mm 1 m/s 753 mmHg 78%
12:00 +22°C° 0.1 mm 1 m/s 753 mmHg 77%
13:00 +22°C° 0.1 mm 1 m/s 753 mmHg 76%
14:00 +23°C° 0.1 mm 1 m/s 753 mmHg 74%
15:00 +23°C° 0.2 mm 1 m/s 753 mmHg 74%
16:00 +21°C° 0.2 mm 0 m/s 752 mmHg 74%
17:00 +21°C° 0.2 mm 0 m/s 752 mmHg 74%
18:00 +21°C° 0.1 mm 0 m/s 752 mmHg 77%
19:00 +22°C° 0.1 mm 1 m/s 752 mmHg 81%
20:00 +21°C° 0.1 mm 1 m/s 752 mmHg 85%
21:00 +20°C° 0 mm 1 m/s 752 mmHg 87%
22:00 +19°C° 0 mm 1 m/s 752 mmHg 90%
23:00 +18°C° 0 mm 1 m/s 752 mmHg 93%

26 Junho, Sábado

Tempo Temperatura Precipitação Vento Pressão Humidade
00:00 +18°C° 0 mm 1 m/s 753 mmHg 92%
01:00 +16°C° 0 mm 1 m/s 753 mmHg 91%
02:00 +16°C° 0 mm 1 m/s 753 mmHg 91%
03:00 +18°C° 0 mm 1 m/s 753 mmHg 88%
04:00 +18°C° 0 mm 1 m/s 753 mmHg 84%
05:00 +19°C° 0 mm 1 m/s 753 mmHg 81%
06:00 +20°C° 0 mm 1 m/s 753 mmHg 72%
07:00 +22°C° 0 mm 1 m/s 753 mmHg 62%
08:00 +24°C° 0 mm 1 m/s 753 mmHg 53%
09:00 +25°C° 0 mm 1 m/s 753 mmHg 48%
10:00 +26°C° 0 mm 2 m/s 753 mmHg 43%
11:00 +27°C° 0 mm 2 m/s 754 mmHg 38%
12:00 +27°C° 0 mm 2 m/s 753 mmHg 36%
13:00 +27°C° 0 mm 2 m/s 753 mmHg 35%
14:00 +28°C° 0 mm 2 m/s 753 mmHg 34%
15:00 +28°C° 0 mm 2 m/s 753 mmHg 35%
16:00 +27°C° 0 mm 2 m/s 753 mmHg 37%
17:00 +27°C° 0 mm 2 m/s 753 mmHg 38%
18:00 +25°C° 0 mm 2 m/s 753 mmHg 46%
19:00 +24°C° 0 mm 2 m/s 753 mmHg 53%
20:00 +22°C° 0 mm 1 m/s 753 mmHg 61%
21:00 +21°C° 0 mm 1 m/s 753 mmHg 64%
22:00 +20°C° 0 mm 1 m/s 753 mmHg 67%
23:00 +18°C° 0 mm 1 m/s 754 mmHg 70%

27 Junho, Domingo

Tempo Temperatura Precipitação Vento Pressão Humidade
00:00 +18°C° 0 mm 1 m/s 754 mmHg 72%
01:00 +16°C° 0 mm 1 m/s 754 mmHg 74%
02:00 +16°C° 0 mm 1 m/s 754 mmHg 76%
03:00 +18°C° 0 mm 1 m/s 754 mmHg 75%
04:00 +16°C° 0 mm 0 m/s 755 mmHg 73%
05:00 +17°C° 0 mm 0 m/s 755 mmHg 71%
06:00 +19°C° 0 mm 0 m/s 755 mmHg 64%
07:00 +21°C° 0 mm 0 m/s 755 mmHg 57%
08:00 +25°C° 0 mm 1 m/s 755 mmHg 51%
09:00 +26°C° 0 mm 1 m/s 755 mmHg 47%
10:00 +27°C° 0 mm 1 m/s 755 mmHg 43%
11:00 +28°C° 0 mm 1 m/s 755 mmHg 39%
12:00 +28°C° 0 mm 1 m/s 755 mmHg 38%
13:00 +28°C° 0 mm 2 m/s 755 mmHg 36%
14:00 +28°C° 0 mm 2 m/s 755 mmHg 35%
15:00 +28°C° 0 mm 2 m/s 755 mmHg 36%
16:00 +28°C° 0 mm 2 m/s 754 mmHg 37%
17:00 +28°C° 0 mm 1 m/s 754 mmHg 38%
18:00 +26°C° 0 mm 1 m/s 754 mmHg 45%
19:00 +25°C° 0 mm 1 m/s 754 mmHg 53%
20:00 +23°C° 0 mm 1 m/s 754 mmHg 60%
21:00 +22°C° 0 mm 1 m/s 754 mmHg 59%
22:00 +20°C° 0 mm 1 m/s 754 mmHg 58%
23:00 +19°C° 0 mm 1 m/s 754 mmHg 58%
Mostrar mais

Necessitamos do seu Consentimento

A Meteoprog e os seus Fornecedores de Serviços podem armazenar e aceder a dados pessoais como cookies, identificadores do dispositivo ou outras tecnologias semelhantes existentes no seu dispositivo e processar estes dados para personalizar conteúdos e anúncios, assim como funcionalidades nas redes sociais e análise de tráfego.

  • Armazenar e/ou aceder a informações no seu dispositivo

    Os cookies, identificadores do dispositivo ou outras informações podem ser armazenados ou acedidos no seu dispositivo, para os fins acima indicados.

  • Anúncios e conteúdos personalizados, medição de anúncios e conteúdos, dados sobre o público-alvo e desenvolvimento de produtos

    Os anúncios e os conteúdos podem ser personalizados com base num perfil. Podem ser adicionados dados adicionais para uma maior personalização dos anúncios e dos conteúdos. A eficácia dos anúncios e dos conteúdos pode ser medida. Podem ser obtidas informações sobre o público que visualizou os anúncios e os conteúdos. Estes dados podem ser usados para desenvolver ou melhorar sistemas, softwares ou a experiência do utilizador.

Ao clicar em "Eu concordo”, permitirá o uso de cookies, identificadores do dispositivo e web beacons mencionados ou outras tecnologias semelhantes. As configurações do navegador do seu dispositivo podem ser alteradas.

Para certos fins, podem ser invocados interesses legítimos ao invés de consentimento. Pode ler mais informação sobre este assunto na nossa Política de Privacidade e Cookies.